Forside
METAR-TAF:

METAR-TAF

Lufthavne :

Door County Cherryland Airport

Sturgeon Bay, Wisconsin, USA

Breddekreds: 44-51N, længdekreds: 087-25W, højde: 221 m

Aktuelle vejr

Denne rapport blev lavet for 19 minutter siden, kl. 00:56 UTC
Vind 7 kt fra nordnordvest
Temperatur 16°C
Fugtighed 42%
Tryk 1012 hPa
Sigt: 16.1 km
Nogle få skyer i en højde af 6000 ft

METAR: KSUE 220056Z AUTO 34007KT 10SM FEW060 16/03 A2987 RMK AO2 SLP113 T01560028 $

Tid: 20:15 (01:15 UTC)


TAF: fraværende

Vejrobservationer og prognoser fra mere end 4000 lufthavne (METAR og TAF).

De gule og røde prikker repræsenterer de meteorologiske stationer.

Flyt musen over at se navnet på stationen.

Så klik over at se vejr observationer og prognoser.

At skifte det kort: Klik på de grønne knapper med et sort kors for at zoome ind; på den grønne knap med en bindestreg for at zoome ud; eller på de grønne pile for tilstødende kort.


METAR-TAF: